Temp
19 19 19 18 18 18 18 18 18 18 18 18 17 17 16 16 16 15 15 15 16 17 17 18 18 18 18 18 18 18 17 17 17 18 17 18 19 19 19 19 19 19 19
19 20 20 19 19 18 18 18 18 18 18 18 18 17 16 16 16 16 16 16 17 16 17 17 18 18 17 17 17 17 17 17 17 17 18 17 19 19 19 19 19 19 20
21 21 20 19 19 19 18 18 18 18 18 18 18 17 17 17 16 16 17 16 16 16 17 17 17 18 17 17 17 17 17 17 17 17 17 18 17 18 18 19 19 19 19
20 20 20 20 19 19 18 18 18 18 18 17 17 17 17 17 17 17 16 16 17 17 17 17 17 17 16 17 17 17 17 17 17 17 17 18 18 18 18 18 18 19 19
20 19 20 20 19 19 18 18 17 17 17 17 17 17 17 17 16 16 16 16 16 16 16 17 17 16 17 17 17 17 17 17 17 17 17 17 17 17 17 18 18 18 18
19 19 19 19 19 18 18 18 17 17 17 16 16 17 17 17 16 17 16 17 17 17 17 17 17 17 17 18 17 17 17 17 17 17 17 17 17 17 17 18 18 18 18
19 18 18 18 18 18 17 17 17 17 16 16 16 16 16 16 16 16 16 16 17 17 17 18 18 18 17 18 17 17 18 18 17 17 17 17 17 17 17 17 17 18 18
19 18 18 18 18 17 17 17 17 16 16 16 15 15 15 15 15 15 15 15 16 16 17 17 17 18 17 18 18 18 18 18 17 17 17 17 17 17 17 17 17 18 18
19 18 18 18 17 17 16 16 16 15 15 15 15 15 15 15 14 14 14 15 15 16 16 16 16 17 17 17 17 18 17 17 17 17 17 17 17 17 17 17 17 17 17
18 18 17 17 16 16 16 16 15 15 14 14 14 14 14 14 14 14 14 14 14 15 15 16 16 17 17 16 16 17 17 17 17 17 17 17 17 17 17 17 17 17 17
18 17 16 16 15 15 15 15 14 14 14 13 13 13 13 13 13 13 13 14 14 14 14 14 15 16 16 17 16 16 16 16 16 16 16 17 17 17 17 17 17 17 17
17 16 15 15 15 15 14 14 14 13 13 13 13 12 12 12 12 12 12 13 12 13 13 13 15 15 16 16 16 16 16 15 15 15 16 16 16 16 16 16 16 16 17
16 15 15 15 14 14 14 13 13 12 11 11 10 10 10 10 10 11 11 12 12 12 12 13 14 14 15 15 15 16 16 16 15 15 15 15 15 15 15 15 16 16 16
15 14 14 14 13 12 12 11 10 9 8 8 8 8 9 9 9 9 9 9 11 11 12 12 12 13 13 14 14 15 15 15 15 14 14 14 14 15 15 15 16 16 16
13 13 12 12 11 12 10 9 8 7 6 6 6 7 6 7 8 8 8 9 10 11 12 12 11 12 13 13 13 13 14 14 14 15 13 13 13 13 14 13 15 15 15
12 12 11 11 9 6 6 6 6 6 6 6 6 5 6 6 6 7 8 9 10 10 11 11 11 12 12 12 12 12 13 12 12 12 13 13 13 13 13 13 14 15 13
11 11 10 10 8 6 6 5 6 6 6 5 6 6 5 5 6 6 7 8 9 9 10 10 10 11 11 12 12 11 11 12 12 12 12 12 13 13 13 13 12 13 14
11 11 10 10 9 9 7 6 5 5 5 4 5 5 6 6 6 6 6 7 8 8 9 9 9 9 10 10 11 11 12 12 12 12 12 12 12 12 12 12 13 13 13
10 10 10 9 9 9 8 7 5 5 4 4 3 3 3 6 6 6 6 6 6 7 8 8 8 8 9 9 10 10 11 12 12 11 11 12 12 12 12 12 13 12 13
9 9 9 8 8 8 7 7 6 3 2 2 2 2 2 4 4 5 5 5 5 6 6 6 7 7 8 8 8 9 9 9 10 10 11 11 11 11 12 12 12 12 13
8 8 8 7 7 7 7 5 3 2 2 2 2 2 3 2 2 2 3 3 3 4 5 5 6 6 7 7 7 8 8 9 10 10 10 11 10 11 11 11 12 12 12
8 8 7 7 6 6 6 3 3 3 3 3 2 2 2 2 2 2 2 2 2 2 3 4 5 5 5 6 7 7 8 8 8 9 10 10 10 11 11 11 11 12 12
8 7 7 7 7 6 4 4 3 3 2 2 3 2 2 1 1 2 2 2 2 2 3 3 4 5 5 6 6 7 8 8 8 9 10 9 10 10 10 11 11 12 12
8 8 8 7 7 6 5 4 4 4 3 2 3 3 2 1 1 1 1 2 2 3 2 3 4 5 5 6 7 7 7 8 8 9 9 10 10 10 10 10 10 11 12
9 9 8 8 7 7 6 5 4 4 3 3 3 4 4 2 2 1 1 1 2 2 3 3 3 4 5 6 6 7 7 8 8 8 8 8 9 10 11 11 10 11 11
9 9 9 8 8 7 7 6 6 5 5 4 4 4 4 4 3 2 1 1 2 2 3 3 3 4 4 5 6 7 8 8 8 9 8 8 8 9 9 10 11 11 11
Height
1539 1540 1541 1540 1540 1539 1537 1536 1534 1530 1527 1523 1519 1515 1513 1511 1509 1509 1509 1510 1510 1510 1509 1511 1510 1511 1512 1514 1515 1515 1516 1517 1517 1516 1517 1516 1517 1517 1517 1517 1516 1516 1515
1539 1540 1541 1540 1539 1538 1537 1534 1531 1528 1524 1521 1518 1514 1512 1510 1509 1508 1508 1507 1505 1505 1507 1504 1506 1507 1507 1509 1508 1509 1510 1511 1512 1511 1511 1511 1511 1512 1512 1512 1512 1511 1511
1538 1538 1539 1539 1539 1536 1535 1532 1530 1527 1524 1521 1518 1516 1513 1510 1508 1507 1507 1505 1504 1503 1502 1501 1502 1501 1503 1504 1505 1504 1504 1506 1506 1505 1505 1505 1506 1507 1507 1507 1507 1507 1507
1538 1537 1537 1537 1536 1535 1533 1530 1528 1526 1523 1521 1519 1515 1512 1510 1508 1505 1504 1501 1501 1499 1498 1496 1494 1495 1497 1500 1499 1498 1497 1499 1499 1499 1499 1500 1500 1502 1501 1503 1503 1503 1503
1535 1535 1534 1533 1533 1531 1529 1528 1526 1524 1522 1519 1516 1514 1512 1509 1506 1504 1502 1499 1498 1496 1495 1494 1492 1493 1494 1495 1495 1494 1493 1492 1492 1492 1492 1494 1495 1495 1496 1497 1497 1498 1499
1533 1534 1534 1533 1530 1528 1526 1524 1523 1522 1519 1517 1514 1510 1507 1505 1503 1501 1499 1496 1495 1494 1492 1491 1489 1489 1490 1489 1489 1489 1488 1487 1487 1487 1487 1487 1487 1489 1490 1490 1492 1493 1495
1531 1531 1530 1530 1528 1524 1523 1522 1520 1519 1516 1513 1509 1505 1502 1501 1498 1495 1494 1493 1491 1490 1488 1486 1485 1484 1484 1483 1482 1482 1482 1482 1482 1483 1482 1481 1482 1483 1485 1485 1486 1488 1488
1528 1528 1527 1524 1523 1521 1519 1519 1517 1515 1513 1510 1506 1503 1499 1498 1495 1493 1490 1489 1487 1485 1484 1481 1480 1478 1478 1477 1475 1475 1475 1475 1476 1478 1477 1477 1477 1478 1479 1481 1481 1481 1482
1526 1525 1523 1520 1519 1518 1517 1515 1514 1512 1510 1507 1504 1500 1496 1494 1492 1490 1487 1484 1483 1481 1478 1476 1474 1472 1472 1471 1470 1469 1470 1469 1471 1472 1472 1472 1472 1472 1474 1473 1473 1474 1474
1523 1521 1518 1516 1516 1515 1513 1511 1510 1507 1505 1502 1499 1497 1493 1490 1488 1487 1483 1480 1478 1476 1475 1472 1471 1469 1468 1468 1467 1466 1465 1466 1465 1466 1466 1466 1467 1466 1467 1467 1468 1468 1469
1520 1517 1515 1514 1513 1511 1509 1506 1504 1501 1498 1497 1492 1491 1488 1484 1482 1482 1478 1476 1474 1471 1470 1469 1468 1466 1464 1463 1462 1462 1462 1462 1461 1462 1462 1462 1462 1461 1461 1461 1462 1462 1462
1516 1515 1513 1512 1509 1506 1504 1501 1498 1494 1491 1488 1485 1483 1482 1477 1477 1474 1473 1471 1470 1466 1464 1463 1461 1460 1459 1459 1458 1458 1457 1457 1457 1457 1457 1456 1456 1455 1456 1455 1455 1456 1456
1515 1513 1511 1508 1504 1502 1498 1494 1491 1488 1486 1483 1481 1478 1476 1474 1470 1466 1465 1465 1464 1460 1458 1455 1454 1453 1452 1452 1452 1452 1451 1450 1450 1450 1450 1450 1450 1450 1450 1450 1450 1450 1450
1510 1508 1504 1502 1501 1496 1492 1490 1487 1485 1482 1480 1477 1474 1471 1467 1464 1462 1459 1458 1457 1455 1452 1449 1447 1446 1446 1445 1445 1444 1444 1443 1443 1442 1444 1444 1444 1443 1443 1443 1443 1444 1442
1507 1503 1500 1497 1494 1488 1488 1487 1483 1481 1478 1475 1472 1468 1464 1459 1457 1455 1454 1452 1450 1448 1445 1443 1442 1441 1440 1440 1439 1438 1437 1436 1436 1436 1436 1436 1437 1436 1436 1435 1435 1435 1434
1502 1500 1497 1493 1489 1488 1485 1483 1481 1477 1474 1472 1468 1464 1460 1456 1452 1449 1448 1446 1444 1441 1439 1437 1437 1435 1434 1433 1432 1432 1432 1431 1429 1430 1430 1429 1429 1429 1429 1429 1428 1428 1428
1502 1500 1496 1493 1490 1487 1484 1481 1477 1474 1471 1467 1464 1460 1456 1451 1447 1444 1441 1438 1436 1435 1433 1431 1428 1427 1426 1426 1426 1426 1424 1423 1422 1421 1421 1421 1421 1421 1421 1421 1420 1418 1418
1504 1503 1499 1493 1490 1486 1482 1479 1476 1470 1464 1460 1458 1454 1451 1447 1443 1439 1435 1432 1430 1428 1426 1425 1421 1420 1419 1419 1418 1417 1416 1415 1414 1414 1412 1412 1411 1411 1411 1410 1410 1410 1410
1504 1502 1498 1493 1490 1486 1483 1478 1474 1469 1464 1459 1455 1452 1447 1441 1437 1432 1429 1427 1424 1422 1420 1417 1415 1414 1412 1411 1410 1409 1407 1405 1405 1406 1405 1404 1403 1402 1401 1401 1401 1401 1401
1503 1501 1497 1494 1490 1486 1482 1477 1473 1468 1464 1461 1456 1451 1443 1436 1430 1426 1423 1421 1418 1415 1412 1410 1408 1406 1405 1403 1402 1401 1399 1397 1396 1394 1396 1396 1395 1394 1393 1392 1392 1392 1392
1504 1501 1497 1494 1490 1487 1483 1479 1474 1470 1467 1462 1457 1451 1444 1437 1431 1425 1420 1415 1411 1407 1404 1401 1398 1397 1395 1394 1393 1391 1387 1385 1385 1385 1385 1385 1385 1385 1384 1384 1383 1383 1382
1504 1501 1497 1494 1491 1488 1484 1480 1476 1471 1466 1461 1455 1449 1442 1436 1430 1424 1417 1411 1405 1400 1395 1391 1388 1386 1384 1383 1383 1380 1378 1377 1375 1374 1375 1375 1375 1375 1375 1375 1374 1374 1374
1504 1500 1497 1494 1491 1487 1484 1480 1476 1471 1466 1460 1454 1447 1441 1434 1428 1421 1415 1408 1401 1394 1388 1383 1378 1375 1374 1373 1372 1371 1369 1368 1368 1367 1366 1366 1366 1365 1365 1365 1365 1365 1365
1503 1500 1497 1494 1491 1486 1483 1479 1475 1469 1464 1459 1454 1448 1440 1433 1426 1419 1412 1405 1397 1390 1383 1376 1371 1367 1364 1362 1361 1360 1359 1359 1359 1357 1357 1356 1356 1356 1355 1356 1356 1356 1356
1502 1499 1496 1493 1489 1485 1481 1477 1473 1468 1463 1459 1453 1446 1440 1433 1426 1418 1410 1402 1395 1387 1380 1373 1366 1361 1357 1355 1353 1351 1349 1348 1347 1346 1345 1343 1343 1343 1345 1345 1347 1347 1347
1500 1497 1494 1491 1487 1483 1479 1475 1470 1466 1461 1456 1451 1444 1438 1432 1425 1418 1410 1401 1393 1385 1378 1371 1365 1359 1353 1348 1345 1342 1339 1338 1336 1335 1333 1330 1329 1330 1331 1332 1334 1336 1336
Wind_Speed
6 3 1 3 5 7 8 10 13 15 18 19 15 12 12 8 5 4 7 13 15 10 10 15 16 17 20 20 21 23 23 21 23 22 19 20 17 13 14 14 14 14 13
4 5 6 6 7 8 10 12 15 18 20 21 20 17 14 10 8 6 7 5 11 18 16 12 15 15 17 19 18 21 19 20 20 22 22 19 19 19 17 18 16 14 17
9 11 11 11 11 10 11 13 15 17 19 21 21 19 17 15 10 8 7 8 8 7 11 14 16 16 16 18 17 15 19 22 25 24 22 24 19 18 18 18 15 15 13
12 12 9 8 8 7 12 11 14 19 19 19 21 20 19 17 14 9 11 14 14 13 11 10 11 14 14 17 18 15 14 21 23 27 25 25 23 20 20 16 17 17 18
12 9 6 6 9 11 9 12 11 15 18 21 20 19 17 16 14 13 12 12 12 12 12 14 16 16 19 19 20 18 17 20 21 21 24 24 19 18 17 17 19 17 18
12 9 6 3 9 11 11 14 13 18 21 20 22 24 21 19 17 16 18 19 19 17 16 15 18 22 22 22 22 22 20 18 19 21 22 25 25 25 21 18 19 18 18
11 10 8 9 15 13 14 12 14 19 18 24 25 23 20 19 18 17 19 21 23 23 22 21 21 22 22 23 23 21 22 21 19 18 20 22 21 18 17 17 19 19 18
11 9 9 13 16 13 9 13 17 18 21 25 23 20 20 18 17 18 18 19 21 22 22 22 21 22 21 21 22 21 22 22 23 22 21 20 18 19 21 20 23 25 24
12 12 13 15 10 10 14 18 19 21 23 23 21 20 19 19 18 18 21 22 21 20 20 18 18 18 17 16 18 17 17 19 22 23 24 24 24 22 20 19 21 21 22
9 11 12 10 13 16 18 20 22 23 25 24 22 21 23 22 19 19 21 24 24 20 15 13 12 13 15 16 17 16 16 14 15 17 17 17 18 18 19 21 20 20 22
10 11 12 15 17 19 22 24 26 26 27 28 25 25 25 24 24 25 24 25 24 24 19 16 13 13 12 11 16 19 19 16 15 15 16 17 18 19 19 18 18 20 20
11 12 15 18 21 24 27 29 30 30 31 31 29 27 21 25 28 27 25 22 23 25 25 21 23 23 20 18 17 15 16 19 20 20 19 19 19 18 18 18 17 18 20
14 18 21 24 27 28 28 28 27 25 22 21 19 20 20 19 19 21 20 22 24 23 24 25 27 27 26 25 22 19 20 21 22 22 22 22 19 17 18 18 19 20 21
19 21 22 22 22 21 21 20 20 18 17 17 17 17 19 18 17 16 16 19 22 23 23 24 24 25 27 26 24 24 24 23 23 22 19 18 18 23 26 26 24 22 24
18 19 19 19 20 20 19 18 18 15 15 16 16 17 19 21 20 22 22 24 25 25 28 27 23 20 20 20 20 20 23 26 28 27 22 20 20 20 22 20 25 24 24
18 18 19 19 18 16 16 16 15 18 17 15 15 17 20 21 24 26 26 26 27 28 28 27 24 23 22 20 20 20 20 21 22 22 22 23 23 22 21 20 23 25 20
15 16 16 16 16 16 16 17 19 19 18 19 19 18 18 18 19 19 20 22 22 22 21 20 24 24 24 25 23 18 17 17 19 20 21 23 23 23 23 22 21 23 23
15 16 15 17 17 18 18 18 19 21 24 23 21 20 19 22 24 24 21 20 18 17 18 21 19 22 23 23 23 24 25 25 25 25 24 22 21 21 22 25 25 24 24
15 15 16 17 18 20 20 20 20 21 22 24 25 22 24 29 28 24 18 19 20 21 21 20 20 21 24 24 25 27 29 33 33 29 26 24 22 22 26 27 27 28 27
16 17 17 18 19 20 21 23 25 23 22 23 24 25 30 33 30 28 23 19 19 17 15 19 21 23 23 23 23 23 27 29 29 30 27 26 23 24 27 29 28 28 27
18 18 19 18 20 22 23 23 21 21 22 24 23 24 28 30 30 29 28 25 23 25 28 29 29 25 27 30 30 28 23 28 28 27 25 25 26 29 30 30 30 30 29
19 20 20 20 19 20 22 17 18 19 23 28 28 29 29 28 29 29 29 29 28 25 24 26 29 31 30 31 31 32 33 28 17 15 21 21 24 27 27 29 30 31 30
19 20 21 20 19 18 15 17 17 20 20 27 36 34 33 31 30 29 29 29 30 29 26 24 24 26 28 29 31 31 33 31 27 26 27 26 25 23 24 26 28 29 29
17 18 20 20 19 18 15 16 15 20 22 21 27 36 37 34 32 32 32 31 31 31 30 27 23 22 23 24 26 27 29 29 29 31 33 35 33 29 21 22 25 27 28
16 17 18 18 20 19 18 16 17 19 20 20 21 28 33 40 38 37 37 35 32 30 31 30 26 22 21 21 23 25 26 29 31 32 34 36 38 37 37 35 35 33 30
17 18 18 18 19 20 20 20 20 21 21 22 23 27 29 31 36 40 42 40 37 32 30 30 29 27 23 20 20 23 26 27 28 30 33 35 36 38 38 38 37 37 35
Wind_Direction
132 93 41 3 29 31 21 12 7 5 5 5 4 354 358 349 317 281 256 236 237 251 273 256 254 263 261 255 253 251 248 246 253 263 262 270 268 264 259 284 275 266 256
131 82 73 61 53 43 32 28 23 15 10 8 7 7 349 330 339 280 269 287 260 260 268 288 270 268 267 260 260 256 253 253 253 262 270 265 267 257 268 275 274 267 250
129 104 82 66 51 44 28 22 20 16 13 10 6 3 356 348 318 292 280 275 279 280 268 272 272 269 266 264 259 263 265 262 261 264 268 273 263 263 271 271 262 253 253
159 134 95 58 27 13 11 358 5 359 356 357 357 354 352 349 341 328 294 285 276 266 268 273 274 264 261 265 266 269 267 266 260 256 266 269 266 262 264 264 266 264 248
177 157 116 54 7 343 336 333 334 350 342 339 338 335 331 331 331 323 314 313 309 298 276 257 251 255 264 265 268 270 270 270 262 254 262 262 256 259 257 268 267 269 259
192 195 216 315 333 316 314 322 320 336 336 339 336 333 325 314 306 298 297 295 294 292 289 273 267 264 261 261 262 272 271 270 261 257 261 262 264 263 269 270 265 268 268
214 234 257 294 320 311 305 316 325 331 327 331 335 333 331 326 319 309 298 291 289 290 289 283 278 274 272 273 273 267 265 262 266 267 266 265 267 260 273 265 257 262 262
233 257 285 302 312 301 305 312 314 316 315 326 333 334 333 329 325 320 316 310 301 296 296 290 279 275 273 275 277 275 266 261 260 268 270 276 273 270 270 267 265 262 261
264 283 289 298 284 285 294 300 305 303 305 314 318 320 322 321 315 311 310 310 309 302 293 285 281 276 278 274 278 278 277 272 267 266 268 269 270 269 266 265 264 264 263
262 275 287 276 276 286 291 296 299 300 302 303 303 300 306 306 305 304 306 307 305 305 286 277 280 277 269 264 268 275 278 284 272 269 268 269 270 270 266 263 265 264 260
265 275 278 281 287 296 299 302 301 302 302 302 300 296 294 297 297 299 305 305 297 291 287 283 283 275 273 270 264 264 270 272 271 268 270 272 273 271 270 267 260 261 259
281 285 291 297 301 301 300 301 302 304 303 303 302 299 297 294 291 294 298 295 291 290 284 280 278 277 273 268 271 276 268 266 267 270 274 279 282 270 259 261 263 261 261
305 303 301 301 300 301 303 305 308 309 308 307 306 303 301 301 302 304 294 286 284 287 287 285 277 276 276 270 269 270 267 267 266 270 275 277 277 263 257 272 274 272 269
307 306 307 309 309 313 316 314 316 318 317 312 304 302 303 308 314 315 308 300 285 288 290 290 289 282 275 276 274 269 268 267 269 270 268 266 269 271 270 274 279 277 276
329 330 328 328 328 331 327 323 325 325 327 321 314 312 311 309 301 296 295 292 289 287 288 293 297 295 286 277 276 278 275 271 268 269 268 268 270 270 269 272 276 280 276
343 346 345 346 346 341 337 334 329 328 337 341 336 323 311 304 304 298 292 288 283 283 285 283 280 281 283 284 281 277 274 275 270 266 262 265 267 267 267 264 267 272 267
359 358 358 3 1 358 353 348 342 343 343 339 336 334 330 323 313 307 296 290 287 282 287 283 279 280 279 281 282 282 284 279 273 272 270 267 266 264 263 260 259 267 266
23 16 17 17 11 6 360 353 348 343 340 339 337 334 327 314 308 311 303 298 292 291 290 283 289 279 282 281 282 285 286 285 287 284 276 267 265 262 257 261 265 264 267
21 16 16 15 13 13 6 359 355 350 345 342 341 342 338 336 327 321 318 317 308 300 300 298 294 291 286 283 281 285 289 285 283 280 275 271 266 263 265 270 272 270 273
23 20 21 20 15 14 12 11 9 3 356 350 348 345 342 344 346 340 324 306 298 293 296 298 297 292 291 289 284 282 282 276 271 273 266 264 263 264 267 272 274 270 270
32 28 28 27 26 21 19 15 8 4 358 354 346 343 347 349 348 348 346 335 320 298 286 282 278 276 279 278 277 280 299 290 276 268 263 263 264 266 267 269 271 269 273
33 29 27 25 23 21 21 11 10 5 5 4 358 353 353 349 347 349 348 346 341 331 316 298 286 281 279 275 280 278 281 283 291 273 269 276 273 268 269 267 266 266 269
28 24 20 16 14 12 11 14 19 20 13 16 16 7 1 356 352 350 349 350 349 345 337 320 303 289 282 278 275 273 278 280 282 280 278 274 277 272 272 268 266 267 268
13 8 5 3 1 2 355 358 355 360 2 359 5 10 7 3 360 357 353 349 350 353 352 340 325 308 294 287 281 279 280 278 275 272 273 271 267 263 258 260 265 266 266
351 348 347 346 349 350 348 343 341 343 346 346 346 357 9 11 8 6 3 359 352 351 357 358 352 335 316 300 288 284 280 274 272 274 276 274 267 265 259 260 262 265 266
342 341 338 338 340 341 342 344 343 344 341 342 348 351 353 357 358 358 2 4 2 360 355 358 1 3 357 336 307 287 283 280 275 274 272 270 268 267 266 260 258 258 261